| time (UTC) | temp F | wind direction | speed knots | gust knots | rain 1hr in | rain 24hr in | rain mn in | humidity % | barometer mb |
| 20260903164426 | 58 | 118 | 7.0 | 11.3 | 0.00 | 0.06 | 0.06 | 81 | 1009.6 |
| 20260903163925 | 58 | 116 | 4.3 | 9.6 | 0.00 | 0.06 | 0.06 | 81 | 1010.0 |
| 20260903163422 | 58 | 175 | 7.8 | 12.2 | 0.00 | 0.06 | 0.06 | 82 | 1010.0 |
| 20260903162917 | 58 | 201 | 2.6 | 11.3 | 0.00 | 0.06 | 0.06 | 83 | 1010.0 |
| 20260903162414 | 57 | 116 | 6.1 | 11.3 | 0.00 | 0.06 | 0.06 | 83 | 1010.0 |
| 20260903161909 | 57 | 148 | 5.2 | 11.3 | 0.00 | 0.06 | 0.06 | 84 | 1010.0 |
| 20260903161404 | 57 | 157 | 6.1 | 13.9 | 0.00 | 0.06 | 0.06 | 84 | 1010.0 |
| 20260903160901 | 57 | 112 | 7.8 | 13.0 | 0.00 | 0.06 | 0.06 | 84 | 1010.0 |
| 20260903160359 | 57 | 131 | 6.1 | 13.0 | 0.00 | 0.06 | 0.06 | 85 | 1010.0 |
| 20260903155858 | 57 | 128 | 5.2 | 13.9 | 0.00 | 0.06 | 0.06 | 85 | 1010.0 |
| 20260903155353 | 56 | 184 | 7.8 | 9.6 | 0.00 | 0.06 | 0.06 | 86 | 1010.0 |
| 20260903154848 | 56 | 141 | 7.8 | 12.2 | 0.00 | 0.06 | 0.06 | 86 | 1010.0 |
| 20260903154344 | 56 | 186 | 7.8 | 9.6 | 0.00 | 0.06 | 0.06 | 86 | 1010.0 |
| 20260903153839 | 56 | 129 | 4.3 | 11.3 | 0.00 | 0.06 | 0.06 | 86 | 1009.6 |
| 20260903153335 | 56 | 132 | 1.7 | 13.0 | 0.07 | 0.06 | 0.06 | 86 | 1010.0 |
| 20260903152831 | 56 | 166 | 6.1 | 8.7 | 0.07 | 0.06 | 0.06 | 87 | 1010.0 |
| 20260903152327 | 56 | 146 | 2.6 | 13.0 | 0.00 | 0.05 | 0.05 | 87 | 1010.0 |
| 20260903151821 | 55 | 117 | 3.5 | 9.6 | 0.00 | 0.05 | 0.05 | 87 | 1010.0 |
| 20260903151317 | 55 | 147 | 3.5 | 7.0 | 0.00 | 0.05 | 0.05 | 87 | 1010.0 |
| 20260903150812 | 55 | 149 | 5.2 | 8.7 | 0.00 | 0.05 | 0.05 | 87 | 1010.0 |
| 20260903150312 | 55 | 123 | 5.2 | 8.7 | 0.00 | 0.05 | 0.05 | 87 | 1009.6 |
| 20260903145807 | 55 | 137 | 2.6 | 7.8 | 0.00 | 0.05 | 0.05 | 88 | 1010.0 |
| 20260903145305 | 55 | 89 | 5.2 | 7.0 | 0.00 | 0.05 | 0.05 | 87 | 1010.0 |
| 20260903144801 | 55 | 182 | 7.0 | 12.2 | 0.00 | 0.05 | 0.05 | 88 | 1009.6 |
| 20260903144257 | 55 | 182 | 4.3 | 9.6 | 0.00 | 0.05 | 0.05 | 88 | 1010.0 |
| 20260903143752 | 55 | 204 | 5.2 | 8.7 | 0.00 | 0.05 | 0.05 | 89 | 1009.6 |
| 20260903143248 | 54 | 126 | 1.7 | 11.3 | 0.00 | 0.05 | 0.05 | 89 | 1009.6 |
| 20260903142744 | 55 | 125 | 3.5 | 7.8 | 0.00 | 0.05 | 0.05 | 89 | 1010.0 |
| 20260903142240 | 55 | 176 | 1.7 | 8.7 | 0.00 | 0.05 | 0.05 | 89 | 1009.6 |
| 20260903141735 | 55 | 170 | 4.3 | 7.0 | 0.00 | 0.05 | 0.05 | 88 | 1009.6 |
| 20260903141231 | 55 | 125 | 0.9 | 7.0 | 0.00 | 0.05 | 0.05 | 88 | 1009.6 |
| 20260903140726 | 55 | 206 | 3.5 | 11.3 | 0.00 | 0.05 | 0.05 | 88 | 1009.6 |
| 20260903140221 | 55 | 91 | 4.3 | 7.8 | 0.00 | 0.05 | 0.05 | 88 | 1009.6 |
| 20260903135716 | 55 | 169 | 9.6 | 12.2 | 0.00 | 0.05 | 0.05 | 88 | 1009.6 |
| 20260903135212 | 55 | 111 | 7.0 | 13.9 | 0.00 | 0.05 | 0.05 | 87 | 1009.6 |
| 20260903134710 | 55 | 163 | 8.7 | 13.9 | 0.00 | 0.05 | 0.05 | 87 | 1009.6 |
| 20260903134207 | 55 | 168 | 7.8 | 12.2 | 0.00 | 0.05 | 0.05 | 88 | 1009.3 |
| 20260903133704 | 54 | 213 | 3.5 | 7.8 | 0.00 | 0.05 | 0.05 | 89 | 1009.3 |
| 20260903133200 | 54 | 151 | 3.5 | 7.8 | 0.00 | 0.05 | 0.05 | 89 | 1009.3 |
| 20260903132700 | 54 | 172 | 4.3 | 6.1 | 0.00 | 0.05 | 0.05 | 89 | 1009.3 |
| 20260903132154 | 54 | 183 | 5.2 | 7.8 | 0.00 | 0.05 | 0.05 | 90 | 1009.3 |
| 20260903131650 | 54 | 101 | 4.3 | 14.8 | 0.00 | 0.05 | 0.05 | 90 | 1009.3 |
| 20260903131148 | 54 | 147 | 4.3 | 11.3 | 0.00 | 0.05 | 0.05 | 90 | 1009.3 |
| 20260903130644 | 54 | 150 | 4.3 | 12.2 | 0.00 | 0.05 | 0.05 | 91 | 1009.3 |
| 20260903130144 | 54 | 170 | 7.0 | 9.6 | 0.00 | 0.05 | 0.05 | 91 | 1009.0 |
| 20260903125642 | 54 | 200 | 8.7 | 15.6 | 0.00 | 0.05 | 0.05 | 91 | 1009.0 |
| 20260903125138 | 54 | 168 | 3.5 | 12.2 | 0.00 | 0.05 | 0.05 | 91 | 1009.0 |
| 20260903124637 | 54 | 118 | 1.7 | 9.6 | 0.00 | 0.05 | 0.05 | 91 | 1009.0 |
| 20260903124137 | 54 | 180 | 5.2 | 12.2 | 0.05 | 0.05 | 0.05 | 91 | 1009.3 |
| 20260903123631 | 54 | 176 | 5.2 | 12.2 | 0.05 | 0.05 | 0.05 | 91 | 1009.0 |
| 20260903123130 | 54 | 123 | 5.2 | 12.2 | 0.00 | 0.04 | 0.04 | 91 | 1009.0 |
| 20260903122624 | 54 | 178 | 6.1 | 9.6 | 0.07 | 0.04 | 0.04 | 91 | 1009.0 |
| 20260903122119 | 54 | 117 | 5.2 | 12.2 | 0.07 | 0.04 | 0.04 | 91 | 1009.0 |
| 20260903121618 | 54 | 219 | 3.5 | 13.0 | 0.05 | 0.03 | 0.03 | 91 | 1009.0 |
| 20260903121114 | 54 | 143 | 3.5 | 11.3 | 0.00 | 0.03 | 0.03 | 90 | 1009.0 |
| 20260903120613 | 55 | 128 | 7.8 | 11.3 | 0.07 | 0.02 | 0.02 | 90 | 1008.6 |
| 20260903120108 | 55 | 166 | 7.8 | 11.3 | 0.05 | 0.01 | 0.01 | 90 | 1008.6 |
| 20260903115605 | 55 | 193 | 3.5 | 11.3 | 0.05 | 0.01 | 0.01 | 89 | 1008.6 |
| 20260903115101 | 55 | 218 | 3.5 | 12.2 | 0.00 | 0.00 | 0.00 | 89 | 1008.6 |
| 20260903114556 | 55 | 123 | 2.6 | 13.0 | 0.00 | 0.00 | 0.00 | 89 | 1008.6 |
| 20260903114052 | 55 | 179 | 6.1 | 8.7 | 0.00 | 0.00 | 0.00 | 89 | 1008.6 |
| 20260903113547 | 55 | 249 | 4.3 | 14.8 | 0.00 | 0.00 | 0.00 | 89 | 1008.6 |
| 20260903113043 | 55 | 151 | 5.2 | 13.9 | 0.00 | 0.00 | 0.00 | 88 | 1008.6 |
| 20260903112539 | 55 | 173 | 7.0 | 14.8 | 0.00 | 0.00 | 0.00 | 87 | 1008.3 |
| 20260903112034 | 56 | 120 | 1.7 | 9.6 | 0.00 | 0.00 | 0.00 | 85 | 1008.3 |
| 20260903111532 | 56 | 114 | 5.2 | 14.8 | 0.00 | 0.00 | 0.00 | 85 | 1008.3 |
| 20260903111029 | 56 | 167 | 5.2 | 9.6 | 0.00 | 0.00 | 0.00 | 85 | 1008.3 |
| 20260903110525 | 56 | 190 | 4.3 | 8.7 | 0.00 | 0.00 | 0.00 | 84 | 1008.3 |
| 20260903110024 | 56 | 197 | 7.8 | 12.2 | 0.00 | 0.00 | 0.00 | 84 | 1008.3 |
| 20260903105519 | 56 | 116 | 6.1 | 8.7 | 0.00 | 0.00 | 0.00 | 84 | 1008.3 |
| 20260903105014 | 56 | 118 | 5.2 | 9.6 | 0.00 | 0.00 | 0.00 | 84 | 1008.3 |
| 20260903104513 | 56 | 132 | 1.7 | 11.3 | 0.00 | 0.00 | 0.00 | 84 | 1008.3 |
| 20260903104005 | 56 | 108 | 6.1 | 9.6 | 0.00 | 0.00 | 0.00 | 84 | 1007.9 |
| 20260903103500 | 56 | 97 | 3.5 | 6.1 | 0.00 | 0.00 | 0.00 | 84 | 1008.3 |
| 20260903102956 | 56 | 170 | 7.8 | 11.3 | 0.00 | 0.00 | 0.00 | 84 | 1008.6 |
| 20260903102451 | 56 | 113 | 5.2 | 13.0 | 0.00 | 0.00 | 0.00 | 83 | 1008.6 |
| 20260903101949 | 56 | 232 | 7.8 | 11.3 | 0.00 | 0.00 | 0.00 | 83 | 1008.3 |
| 20260903101444 | 57 | 131 | 3.5 | 11.3 | 0.00 | 0.00 | 0.00 | 82 | 1008.3 |
| 20260903100940 | 57 | 168 | 7.8 | 13.0 | 0.00 | 0.00 | 0.00 | 82 | 1008.3 |
| 20260903100435 | 57 | 103 | 8.7 | 14.8 | 0.00 | 0.00 | 0.00 | 81 | 1008.3 |
| 20260903095932 | 57 | 208 | 5.2 | 13.9 | 0.00 | 0.00 | 0.00 | 82 | 1008.3 |
| 20260903095427 | 56 | 195 | 8.7 | 11.3 | 0.00 | 0.00 | 0.00 | 83 | 1008.3 |
| 20260903094922 | 56 | 107 | 3.5 | 9.6 | 0.00 | 0.00 | 0.00 | 83 | 1008.3 |
| 20260903094421 | 56 | 143 | 4.3 | 11.3 | 0.00 | 0.00 | 0.00 | 84 | 1008.3 |
| 20260903093918 | 56 | 196 | 6.1 | 11.3 | 0.00 | 0.00 | 0.00 | 84 | 1007.9 |
| 20260903093418 | 56 | 182 | 7.0 | 11.3 | 0.00 | 0.00 | 0.00 | 84 | 1007.9 |
| 20260903092913 | 56 | 143 | 2.6 | 7.0 | 0.00 | 0.00 | 0.00 | 85 | 1008.3 |
| 20260903092408 | 56 | 220 | 2.6 | 9.6 | 0.00 | 0.00 | 0.00 | 84 | 1008.3 |
| 20260903091907 | 56 | 151 | 5.2 | 8.7 | 0.00 | 0.00 | 0.00 | 84 | 1008.3 |
| 20260903091406 | 56 | 165 | 2.6 | 13.0 | 0.00 | 0.00 | 0.00 | 84 | 1007.9 |
| 20260903090901 | 56 | 174 | 3.5 | 7.8 | 0.00 | 0.00 | 0.00 | 84 | 1007.9 |
| 20260903090356 | 56 | 218 | 4.3 | 13.9 | 0.00 | 0.00 | 0.00 | 84 | 1007.9 |
| 20260903085854 | 56 | 207 | 7.0 | 8.7 | 0.00 | 0.00 | 0.00 | 84 | 1007.9 |
| 20260903085353 | 56 | 196 | 7.0 | 18.2 | 0.00 | 0.00 | 0.00 | 84 | 1007.9 |
| 20260903084853 | 56 | 197 | 7.8 | 12.2 | 0.00 | 0.00 | 0.00 | 84 | 1007.9 |
| 20260903084352 | 56 | 179 | 6.1 | 9.6 | 0.00 | 0.00 | 0.00 | 84 | 1007.9 |
| 20260903083847 | 56 | 149 | 0.9 | 9.6 | 0.00 | 0.00 | 0.00 | 84 | 1007.9 |
| 20260903083343 | 56 | 166 | 3.5 | 7.8 | 0.00 | 0.00 | 0.00 | 85 | 1007.9 |
| 20260903082841 | 56 | 176 | 3.5 | 8.7 | 0.00 | 0.00 | 0.00 | 85 | 1007.9 |
| 20260903082337 | 56 | 113 | 3.5 | 7.8 | 0.00 | 0.00 | 0.00 | 85 | 1007.9 |
| 20260903081832 | 56 | 161 | 2.6 | 12.2 | 0.00 | 0.00 | 0.00 | 85 | 1008.3 |
| 20260903081327 | 56 | 190 | 4.3 | 8.7 | 0.00 | 0.00 | 0.00 | 85 | 1007.9 |
| 20260903080824 | 56 | 140 | 3.5 | 12.2 | 0.00 | 0.00 | 0.00 | 84 | 1007.9 |
| 20260903080321 | 56 | 111 | 5.2 | 9.6 | 0.00 | 0.00 | 0.00 | 85 | 1008.3 |
| 20260903075820 | 56 | 99 | 8.7 | 13.0 | 0.00 | 0.00 | 0.00 | 85 | 1007.9 |
| 20260903075315 | 56 | 173 | 3.5 | 13.0 | 0.00 | 0.00 | 0.00 | 85 | 1008.3 |
| 20260903074815 | 56 | 89 | 9.6 | 13.0 | 0.00 | 0.00 | 0.00 | 85 | 1008.3 |
| 20260903074310 | 56 | 184 | 6.1 | 9.6 | 0.00 | 0.00 | 0.00 | 85 | 1007.9 |
| 20260903073805 | 56 | 111 | 4.3 | 9.6 | 0.00 | 0.00 | 0.00 | 84 | 1007.9 |
| 20260903073300 | 56 | 128 | 1.7 | 3.5 | 0.00 | 0.00 | 0.00 | 85 | 1007.9 |
| 20260903072751 | 56 | 112 | 3.5 | 7.0 | 0.00 | 0.00 | 0.00 | 84 | 1007.9 |
| 20260903072247 | 56 | 109 | 2.6 | 6.1 | 0.00 | 0.00 | 0.00 | 84 | 1007.9 |
| 20260903071743 | 56 | 99 | 3.5 | 8.7 | 0.00 | 0.00 | 0.00 | 83 | 1007.9 |
| 20260903071239 | 56 | 144 | 1.7 | 3.5 | 0.00 | 0.00 | 0.00 | 83 | 1007.9 |
| 20260903070738 | 56 | 103 | 3.5 | 6.1 | 0.00 | 0.00 | 0.00 | 83 | 1007.9 |
| 20260903070234 | 56 | 152 | 1.7 | 6.1 | 0.00 | 0.00 | 0.00 | 83 | 1007.9 |
| 20260903065729 | 56 | 100 | 7.0 | 13.0 | 0.00 | 0.00 | 0.00 | 84 | 1007.9 |
| 20260903065228 | 56 | 164 | 3.5 | 7.0 | 0.00 | 0.00 | 0.00 | 84 | 1007.9 |
| 20260903064727 | 57 | 171 | 7.8 | 12.2 | 0.00 | 0.00 | 0.00 | 84 | 1007.9 |
| 20260903064223 | 57 | 107 | 3.5 | 8.7 | 0.00 | 0.00 | 0.00 | 84 | 1007.9 |
| 20260903063719 | 56 | 207 | 4.3 | 9.6 | 0.00 | 0.00 | 0.00 | 84 | 1007.9 |
| 20260903063213 | 56 | 115 | 3.5 | 8.7 | 0.00 | 0.00 | 0.00 | 86 | 1007.9 |
| 20260903062709 | 56 | 133 | 0.9 | 5.2 | 0.00 | 0.00 | 0.00 | 86 | 1007.9 |
| 20260903062203 | 56 | 214 | 2.6 | 5.2 | 0.00 | 0.00 | 0.00 | 86 | 1007.9 |
| 20260903061700 | 56 | 191 | 0.9 | 3.5 | 0.00 | 0.00 | 0.00 | 86 | 1007.6 |
| 20260903061158 | 56 | 196 | 4.3 | 6.1 | 0.00 | 0.00 | 0.00 | 86 | 1007.9 |
| 20260903060654 | 56 | 135 | 1.7 | 2.6 | 0.00 | 0.00 | 0.00 | 86 | 1007.9 |
| 20260903060149 | 56 | 111 | 1.7 | 3.5 | 0.00 | 0.00 | 0.00 | 86 | 1007.9 |
| 20260903055647 | 56 | 205 | 1.7 | 1.7 | 0.00 | 0.00 | 0.00 | 86 | 1007.9 |
| 20260903055145 | 57 | 128 | 0.0 | 1.7 | 0.00 | 0.00 | 0.00 | 85 | 1007.6 |
| 20260903054640 | 57 | 95 | 1.7 | 3.5 | 0.00 | 0.00 | 0.00 | 85 | 1007.9 |
| 20260903054136 | 57 | 174 | 2.6 | 5.2 | 0.00 | 0.00 | 0.00 | 85 | 1007.6 |
| 20260903053631 | 57 | 200 | 2.6 | 6.1 | 0.00 | 0.00 | 0.00 | 85 | 1007.6 |
| 20260903053126 | 57 | 133 | 1.7 | 11.3 | 0.00 | 0.00 | 0.00 | 85 | 1007.6 |
| 20260903052622 | 57 | 112 | 3.5 | 12.2 | 0.00 | 0.00 | 0.00 | 85 | 1007.6 |
| 20260903052118 | 57 | 164 | 6.1 | 11.3 | 0.00 | 0.00 | 0.00 | 85 | 1007.6 |
| 20260903051618 | 57 | 171 | 3.5 | 11.3 | 0.00 | 0.00 | 0.00 | 85 | 1007.6 |
| 20260903051114 | 57 | 182 | 5.2 | 7.8 | 0.00 | 0.00 | 0.00 | 85 | 1007.6 |
| 20260903050613 | 57 | 113 | 7.8 | 11.3 | 0.00 | 0.00 | 0.00 | 85 | 1007.9 |
| 20260903050108 | 57 | 141 | 1.7 | 5.2 | 0.00 | 0.00 | 0.00 | 84 | 1007.9 |
| 20260903045608 | 56 | 176 | 2.6 | 6.1 | 0.00 | 0.00 | 0.00 | 84 | 1007.6 |
| 20260903045104 | 56 | 174 | 4.3 | 5.2 | 0.00 | 0.00 | 0.00 | 84 | 1007.9 |
| 20260903044600 | 56 | 127 | 4.3 | 7.0 | 0.00 | 0.00 | 0.00 | 84 | 1007.6 |
| 20260903044055 | 57 | 195 | 1.7 | 5.2 | 0.00 | 0.00 | 0.00 | 83 | 1007.9 |
| 20260903043551 | 56 | 126 | 0.9 | 1.7 | 0.00 | 0.00 | 0.00 | 83 | 1007.6 |
| 20260903043050 | 57 | 125 | 1.7 | 5.2 | 0.00 | 0.00 | 0.00 | 83 | 1007.6 |
| 20260903042546 | 56 | 115 | 0.9 | 6.1 | 0.00 | 0.00 | 0.00 | 83 | 1007.6 |
| 20260903042041 | 56 | 172 | 2.6 | 3.5 | 0.00 | 0.00 | 0.00 | 83 | 1007.6 |
| 20260903041538 | 56 | 125 | 0.9 | 1.7 | 0.00 | 0.00 | 0.00 | 83 | 1007.6 |
| 20260903041033 | 56 | 116 | 0.0 | 0.9 | 0.00 | 0.00 | 0.00 | 82 | 1007.6 |
| 20260903040532 | 56 | 113 | 0.9 | 2.6 | 0.00 | 0.00 | 0.00 | 82 | 1007.6 |
| 20260903040029 | 56 | 119 | 0.0 | 0.9 | 0.00 | 0.00 | 0.00 | 82 | 1007.6 |
| 20260903035523 | 56 | 138 | 0.9 | 1.7 | 0.00 | 0.00 | 0.00 | 83 | 1007.3 |
| 20260903035019 | 57 | 96 | 0.9 | 0.9 | 0.00 | 0.00 | 0.00 | 82 | 1007.3 |
| 20260903034514 | 57 | 107 | 0.0 | 2.6 | 0.00 | 0.00 | 0.00 | 81 | 1007.3 |
| 20260903034008 | 57 | 115 | 0.9 | 0.9 | 0.00 | 0.00 | 0.00 | 80 | 1006.9 |
| 20260903033504 | 57 | 114 | 3.5 | 6.1 | 0.00 | 0.00 | 0.00 | 80 | 1006.9 |
| 20260903032958 | 57 | 192 | 0.9 | 1.7 | 0.00 | 0.00 | 0.00 | 80 | 1006.6 |
| 20260903032453 | 57 | 126 | 0.9 | 8.7 | 0.00 | 0.00 | 0.00 | 80 | 1006.6 |
| 20260903031948 | 57 | 122 | 1.7 | 7.0 | 0.00 | 0.00 | 0.00 | 81 | 1006.6 |
| 20260903031442 | 57 | 119 | 1.7 | 2.6 | 0.00 | 0.00 | 0.00 | 81 | 1006.6 |
| 20260903030932 | 57 | 149 | 2.6 | 5.2 | 0.00 | 0.00 | 0.00 | 81 | 1006.3 |
| 20260903030428 | 57 | 110 | 0.9 | 3.5 | 0.00 | 0.00 | 0.00 | 81 | 1006.3 |
| 20260903025924 | 58 | 98 | 0.9 | 2.6 | 0.00 | 0.00 | 0.00 | 81 | 1006.3 |
| 20260903025419 | 58 | 114 | 0.9 | 2.6 | 0.00 | 0.00 | 0.00 | 81 | 1006.3 |
| 20260903024915 | 58 | 141 | 0.9 | 3.5 | 0.00 | 0.00 | 0.00 | 81 | 1006.3 |
| 20260903024408 | 58 | 179 | 3.5 | 6.1 | 0.00 | 0.00 | 0.00 | 81 | 1005.9 |
| 20260903023903 | 58 | 135 | 1.7 | 3.5 | 0.00 | 0.00 | 0.00 | 81 | 1005.9 |
| 20260903023359 | 58 | 128 | 1.7 | 5.2 | 0.00 | 0.00 | 0.00 | 80 | 1005.6 |
| 20260903022854 | 59 | 87 | 2.6 | 6.1 | 0.00 | 0.00 | 0.00 | 80 | 1005.6 |
| 20260903022353 | 59 | 190 | 3.5 | 8.7 | 0.00 | 0.00 | 0.00 | 80 | 1005.2 |
| 20260903021852 | 59 | 19 | 2.6 | 5.2 | 0.00 | 0.00 | 0.00 | 80 | 1005.2 |
| 20260903021348 | 59 | 152 | 7.0 | 13.0 | 0.00 | 0.00 | 0.00 | 79 | 1005.2 |
| 20260903020847 | 59 | 118 | 4.3 | 7.0 | 0.00 | 0.00 | 0.00 | 79 | 1004.9 |
| 20260903020343 | 60 | 179 | 3.5 | 8.7 | 0.00 | 0.00 | 0.00 | 78 | 1005.2 |
| 20260903015837 | 59 | 158 | 4.3 | 18.2 | 0.00 | 0.00 | 0.00 | 78 | 1004.9 |
| 20260903015333 | 59 | 149 | 5.2 | 7.0 | 0.00 | 0.00 | 0.00 | 80 | 1004.9 |
| 20260903014828 | 59 | 166 | 5.2 | 11.3 | 0.00 | 0.00 | 0.00 | 80 | 1004.9 |
| 20260903014327 | 59 | 219 | 4.3 | 16.5 | 0.00 | 0.00 | 0.00 | 81 | 1004.9 |
| 20260903013817 | 59 | 152 | 3.5 | 9.6 | 0.00 | 0.00 | 0.00 | 82 | 1004.6 |
| 20260903013316 | 59 | 131 | 4.3 | 9.6 | 0.00 | 0.00 | 0.00 | 82 | 1004.9 |
| 20260903012815 | 59 | 105 | 4.3 | 18.2 | 0.00 | 0.00 | 0.00 | 81 | 1004.9 |
| 20260903012309 | 59 | 157 | 7.8 | 13.9 | 0.00 | 0.00 | 0.00 | 82 | 1004.6 |
| 20260903011803 | 59 | 103 | 7.0 | 12.2 | 0.00 | 0.00 | 0.00 | 82 | 1004.6 |
| 20260903011303 | 59 | 82 | 7.0 | 15.6 | 0.00 | 0.00 | 0.00 | 82 | 1004.6 |
| 20260903010758 | 59 | 182 | 8.7 | 13.9 | 0.00 | 0.00 | 0.00 | 83 | 1004.6 |
| 20260903010254 | 59 | 144 | 7.8 | 9.6 | 0.00 | 0.00 | 0.00 | 83 | 1004.6 |
| 20260903005752 | 59 | 213 | 7.8 | 14.8 | 0.00 | 0.00 | 0.00 | 82 | 1004.9 |
| 20260903005247 | 59 | 174 | 7.0 | 13.9 | 0.00 | 0.00 | 0.00 | 82 | 1004.9 |
| 20260903004743 | 59 | 110 | 7.8 | 13.0 | 0.00 | 0.00 | 0.00 | 82 | 1004.9 |
| 20260903004238 | 58 | 153 | 7.0 | 14.8 | 0.00 | 0.00 | 0.00 | 83 | 1004.9 |
| 20260903003734 | 58 | 247 | 7.8 | 13.9 | 0.00 | 0.00 | 0.00 | 84 | 1004.9 |
| 20260903003229 | 58 | 103 | 5.2 | 12.2 | 0.00 | 0.00 | 0.00 | 85 | 1004.9 |
| 20260903002723 | 58 | 164 | 9.6 | 13.9 | 0.00 | 0.00 | 0.00 | 85 | 1004.9 |
| 20260903002218 | 57 | 123 | 5.2 | 16.5 | 0.00 | 0.00 | 0.00 | 86 | 1004.6 |
| 20260903001713 | 58 | 126 | 7.0 | 16.5 | 0.00 | 0.00 | 0.00 | 87 | 1004.9 |
| 20260903001207 | 58 | 161 | 3.5 | 9.6 | 0.00 | 0.00 | 0.00 | 86 | 1004.6 |
| 20260903000702 | 58 | 104 | 2.6 | 12.2 | 0.00 | 0.00 | 0.00 | 85 | 1004.9 |
| 20260903000204 | 58 | 128 | 8.7 | 12.2 | 0.00 | 0.00 | 0.00 | 84 | 1004.9 |
| 20260902235700 | 58 | 157 | 4.3 | 12.2 | 0.00 | 0.00 | 0.00 | 85 | 1004.6 |
| 20260902235156 | 58 | 232 | 8.7 | 13.0 | 0.00 | 0.00 | 0.00 | 86 | 1004.6 |
| 20260902234655 | 58 | 215 | 7.8 | 13.0 | 0.00 | 0.00 | 0.00 | 86 | 1004.6 |
| 20260902234154 | 58 | 56 | 9.6 | 16.5 | 0.00 | 0.00 | 0.00 | 86 | 1004.9 |
| 20260902233649 | 58 | 160 | 2.6 | 11.3 | 0.00 | 0.00 | 0.00 | 86 | 1004.6 |
| 20260902233149 | 58 | 191 | 7.8 | 12.2 | 0.00 | 0.00 | 0.00 | 87 | 1004.9 |
| 20260902232648 | 57 | 113 | 3.5 | 11.3 | 0.00 | 0.00 | 0.00 | 87 | 1004.9 |
| 20260902232147 | 57 | 204 | 8.7 | 15.6 | 0.00 | 0.00 | 0.00 | 87 | 1005.2 |
| 20260902231642 | 57 | 184 | 7.8 | 13.0 | 0.00 | 0.00 | 0.00 | 87 | 1004.9 |
| 20260902231137 | 57 | 161 | 11.3 | 15.6 | 0.00 | 0.00 | 0.00 | 87 | 1005.2 |
| 20260902230632 | 57 | 157 | 13.0 | 18.2 | 0.00 | 0.00 | 0.00 | 86 | 1005.2 |
| 20260902230130 | 58 | 178 | 11.3 | 14.8 | 0.00 | 0.00 | 0.00 | 85 | 1005.2 |
| 20260902225626 | 58 | 148 | 4.3 | 13.9 | 0.00 | 0.00 | 0.00 | 84 | 1005.2 |
| 20260902225125 | 59 | 124 | 7.8 | 15.6 | 0.00 | 0.00 | 0.00 | 83 | 1004.9 |
| 20260902224623 | 59 | 158 | 5.2 | 12.2 | 0.00 | 0.00 | 0.00 | 81 | 1005.2 |
| 20260902224120 | 59 | 206 | 8.7 | 16.5 | 0.00 | 0.00 | 0.00 | 80 | 1005.2 |
| 20260902223616 | 60 | 106 | 5.2 | 18.2 | 0.00 | 0.00 | 0.00 | 79 | 1005.2 |
| 20260902223115 | 61 | 218 | 1.7 | 9.6 | 0.00 | 0.00 | 0.00 | 78 | 1005.2 |
| 20260902222614 | 61 | 205 | 3.5 | 15.6 | 0.00 | 0.00 | 0.00 | 76 | 1005.2 |
| 20260902222113 | 61 | 115 | 5.2 | 15.6 | 0.00 | 0.00 | 0.00 | 75 | 1005.2 |
| 20260902221607 | 62 | 207 | 2.6 | 13.0 | 0.00 | 0.00 | 0.00 | 74 | 1005.2 |
| 20260902221102 | 62 | 130 | 5.2 | 16.5 | 0.00 | 0.00 | 0.00 | 74 | 1005.2 |
| 20260902220557 | 62 | 147 | 11.3 | 27.8 | 0.00 | 0.00 | 0.00 | 74 | 1005.2 |
| 20260902220052 | 62 | 241 | 12.2 | 19.1 | 0.00 | 0.00 | 0.00 | 75 | 1005.2 |
| 20260902215548 | 62 | 218 | 8.7 | 15.6 | 0.00 | 0.00 | 0.00 | 74 | 1004.9 |
| 20260902215043 | 62 | 192 | 7.8 | 11.3 | 0.00 | 0.00 | 0.00 | 75 | 1005.2 |
| 20260902214538 | 63 | 203 | 12.2 | 18.2 | 0.00 | 0.00 | 0.00 | 74 | 1005.2 |
| 20260902214037 | 63 | 151 | 5.2 | 15.6 | 0.00 | 0.00 | 0.00 | 73 | 1005.2 |
| 20260902213533 | 63 | 190 | 0.9 | 16.5 | 0.00 | 0.00 | 0.00 | 75 | 1005.2 |
| 20260902213032 | 63 | 119 | 9.6 | 16.5 | 0.00 | 0.00 | 0.00 | 75 | 1005.6 |
| 20260902212528 | 63 | 131 | 5.2 | 9.6 | 0.00 | 0.00 | 0.00 | 76 | 1005.2 |
| 20260902212024 | 63 | 147 | 10.4 | 20.9 | 0.00 | 0.00 | 0.00 | 77 | 1005.2 |
| 20260902211520 | 64 | 108 | 9.6 | 15.6 | 0.00 | 0.00 | 0.00 | 75 | 1005.2 |
| 20260902211015 | 65 | 117 | 6.1 | 11.3 | 0.00 | 0.00 | 0.00 | 72 | 1005.6 |
| 20260902210514 | 64 | 26 | 5.2 | 13.9 | 0.00 | 0.00 | 0.00 | 72 | 1005.6 |
| 20260902210014 | 64 | 193 | 5.2 | 7.8 | 0.00 | 0.00 | 0.00 | 72 | 1005.2 |
| 20260902205508 | 64 | 104 | 4.3 | 12.2 | 0.00 | 0.00 | 0.00 | 73 | 1005.2 |
| 20260902205004 | 64 | 110 | 5.2 | 15.6 | 0.00 | 0.00 | 0.00 | 75 | 1005.6 |
| 20260902204504 | 64 | 179 | 7.8 | 13.9 | 0.00 | 0.00 | 0.00 | 74 | 1005.2 |
| 20260902203959 | 63 | 98 | 5.2 | 13.0 | 0.00 | 0.00 | 0.00 | 76 | 1005.6 |
| 20260902203454 | 63 | 153 | 8.7 | 9.6 | 0.00 | 0.00 | 0.00 | 76 | 1005.6 |
| 20260902202952 | 63 | 119 | 6.1 | 8.7 | 0.00 | 0.00 | 0.00 | 77 | 1005.6 |
| 20260902202448 | 62 | 178 | 5.2 | 12.2 | 0.00 | 0.00 | 0.00 | 78 | 1005.9 |
| 20260902201945 | 63 | 129 | 12.2 | 15.6 | 0.00 | 0.00 | 0.00 | 76 | 1005.6 |
| 20260902201440 | 64 | 167 | 4.3 | 12.2 | 0.00 | 0.00 | 0.00 | 75 | 1005.9 |
| 20260902200940 | 64 | 211 | 9.6 | 14.8 | 0.00 | 0.00 | 0.00 | 72 | 1005.9 |
| 20260902200435 | 66 | 150 | 10.4 | 14.8 | 0.00 | 0.00 | 0.00 | 67 | 1005.9 |
| 20260902195930 | 66 | 233 | 5.2 | 21.7 | 0.00 | 0.00 | 0.00 | 66 | 1005.6 |
| 20260902195426 | 66 | 156 | 8.7 | 20.9 | 0.00 | 0.00 | 0.00 | 65 | 1005.6 |
| 20260902194920 | 66 | 142 | 7.8 | 13.9 | 0.00 | 0.00 | 0.00 | 66 | 1005.6 |
| 20260902194419 | 66 | 191 | 6.1 | 12.2 | 0.00 | 0.00 | 0.00 | 67 | 1005.6 |
| 20260902193915 | 66 | 172 | 7.8 | 13.9 | 0.00 | 0.00 | 0.00 | 66 | 1005.6 |
| 20260902193411 | 66 | 142 | 4.3 | 12.2 | 0.00 | 0.00 | 0.00 | 66 | 1005.6 |
| 20260902192910 | 66 | 171 | 8.7 | 16.5 | 0.00 | 0.00 | 0.00 | 67 | 1005.6 |
| 20260902192409 | 67 | 151 | 18.2 | 22.6 | 0.00 | 0.00 | 0.00 | 66 | 1005.6 |
| 20260902191908 | 66 | 104 | 7.8 | 21.7 | 0.00 | 0.00 | 0.00 | 66 | 1005.6 |
| 20260902191404 | 64 | 168 | 4.3 | 14.8 | 0.00 | 0.00 | 0.00 | 69 | 1005.6 |
| 20260902190858 | 65 | 188 | 4.3 | 18.2 | 0.00 | 0.00 | 0.00 | 69 | 1005.6 |
| 20260902190353 | 65 | 201 | 7.8 | 13.0 | 0.00 | 0.00 | 0.00 | 69 | 1005.9 |
| 20260902185849 | 63 | 178 | 12.2 | 16.5 | 0.00 | 0.00 | 0.00 | 71 | 1005.6 |
| 20260902185345 | 63 | 175 | 7.0 | 15.6 | 0.00 | 0.00 | 0.00 | 72 | 1005.9 |
| 20260902184840 | 63 | 87 | 7.0 | 12.2 | 0.00 | 0.00 | 0.00 | 72 | 1005.9 |
| 20260902184335 | 62 | 204 | 5.2 | 12.2 | 0.00 | 0.00 | 0.00 | 74 | 1006.3 |
| 20260902183830 | 62 | 132 | 3.5 | 11.3 | 0.00 | 0.00 | 0.00 | 74 | 1006.3 |
| 20260902183327 | 62 | 146 | 4.3 | 7.0 | 0.00 | 0.00 | 0.00 | 74 | 1006.3 |
| 20260902182822 | 62 | 129 | 7.0 | 13.0 | 0.00 | 0.00 | 0.00 | 74 | 1006.3 |
| 20260902182319 | 62 | 147 | 7.8 | 15.6 | 0.00 | 0.00 | 0.00 | 73 | 1006.3 |
| 20260902181815 | 62 | 160 | 9.6 | 13.0 | 0.00 | 0.00 | 0.00 | 75 | 1006.6 |
| 20260902181310 | 62 | 196 | 7.0 | 11.3 | 0.00 | 0.00 | 0.00 | 75 | 1006.6 |
| 20260902180804 | 62 | 153 | 5.2 | 12.2 | 0.00 | 0.00 | 0.00 | 75 | 1006.6 |
| 20260902180300 | 62 | 108 | 3.5 | 13.0 | 0.00 | 0.00 | 0.00 | 75 | 1006.6 |
| 20260902175755 | 62 | 209 | 6.1 | 12.2 | 0.00 | 0.00 | 0.00 | 75 | 1006.6 |
| 20260902175251 | 62 | 182 | 7.0 | 9.6 | 0.00 | 0.00 | 0.00 | 76 | 1006.9 |
| 20260902174746 | 61 | 145 | 5.2 | 11.3 | 0.00 | 0.00 | 0.00 | 77 | 1006.9 |
| 20260902174242 | 61 | 163 | 6.1 | 9.6 | 0.00 | 0.00 | 0.00 | 77 | 1006.9 |
| 20260902173737 | 61 | 161 | 7.8 | 12.2 | 0.00 | 0.00 | 0.00 | 76 | 1006.6 |
| 20260902173237 | 61 | 184 | 3.5 | 9.6 | 0.00 | 0.00 | 0.00 | 77 | 1006.9 |
| 20260902172731 | 61 | 137 | 5.2 | 8.7 | 0.00 | 0.00 | 0.00 | 77 | 1006.9 |
| 20260902172226 | 61 | 179 | 7.8 | 9.6 | 0.00 | 0.00 | 0.00 | 77 | 1006.9 |
| 20260902171721 | 61 | 170 | 9.6 | 14.8 | 0.00 | 0.00 | 0.00 | 77 | 1006.9 |
| 20260902171216 | 61 | 88 | 1.7 | 14.8 | 0.00 | 0.00 | 0.00 | 77 | 1006.9 |
| 20260902170712 | 61 | 86 | 6.1 | 14.8 | 0.00 | 0.00 | 0.00 | 77 | 1006.9 |
| 20260902170208 | 61 | 121 | 7.0 | 14.8 | 0.00 | 0.00 | 0.00 | 77 | 1006.9 |
| 20260902165702 | 61 | 169 | 7.0 | 12.2 | 0.00 | 0.00 | 0.00 | 76 | 1006.9 |
| 20260902165156 | 62 | 124 | 6.1 | 14.8 | 0.00 | 0.00 | 0.00 | 75 | 1006.9 |
| 20260902164652 | 62 | 132 | 3.5 | 11.3 | 0.00 | 0.00 | 0.00 | 75 | 1006.9 |